Weather History for York, NE

Change the Weather History Date:

Wednesday, November 13, 2013

  Actual Average Record
Temperature  
Mean Temperature 40 °F -  
Max Temperature 55 °F 49 °F 72 °F (1990)
Min Temperature 24 °F 27 °F 0 °F (1986)
Degree Days  
Heating Degree Days 26    
Moisture  
Dew Point 24 °F    
Average Humidity 58    
Maximum Humidity 74    
Minimum Humidity 41    
Precipitation  
Precipitation 0.00 in - - ()
Sea Level Pressure  
Sea Level Pressure 30.21 in    
Wind  
Wind Speed 15 mph (SSW)    
Max Wind Speed 22 mph    
Max Gust Speed 28 mph    
Visibility 10 miles    
Events      
Averages and records for this station are not official NWS values.
T = Trace of Precipitation, MM = Missing Value Source: NWS Daily Summary

Daily Weather History Graph

Daily Weather History Graph

Search for Another Location

Airport:

Trip Planner

Search our weather history database for the weather conditions in past years. The results will help you decide how hot, cold, wet, or windy it might be!

Date:

Astronomy

Nov. 13, 2013 Rise Set
Actual Time 7:15 AM CST 5:13 PM CST
Civil Twilight 6:46 AM CST 5:42 PM CST
Nautical Twilight 6:13 AM CST 6:15 PM CST
Astronomical Twilight 5:40 AM CST 6:48 PM CST
Moon 3:03 PM CST (11/13) 3:08 AM CST (11/13)
Length of Visible Light 10h 56m
Length of Day
9h 57m
Waxing Gibbous, 85% of the Moon is Illuminated
Nov 13
Waxing Gibbous
Nov 17
Full
Nov 25
Last Quarter
Dec 2
New
Dec 9
First Quarter

Hourly Weather History & Observations

Time (CST) Temp. Windchill Dew Point Humidity Pressure Visibility Wind Dir Wind Speed Gust Speed Precip Events Conditions
12:15 AM 24.8 °F 13.4 °F 12.2 °F 59% 30.51 in 10.0 mi SSW 12.7 mph 18.4 mph N/A   Clear
12:35 AM 24.8 °F 12.9 °F 12.2 °F 59% 30.50 in 10.0 mi SSW 13.8 mph - N/A   Clear
12:55 AM 24.8 °F 13.4 °F 12.2 °F 59% 30.49 in 10.0 mi SSW 12.7 mph - N/A   Clear
1:15 AM 24.8 °F 13.4 °F 12.2 °F 59% 30.48 in 10.0 mi SSW 12.7 mph - N/A   Clear
1:35 AM 26.6 °F 15.2 °F 12.2 °F 55% 30.48 in 10.0 mi SSW 13.8 mph - N/A   Clear
1:55 AM 24.8 °F 14.0 °F 12.2 °F 59% 30.47 in 10.0 mi SSW 11.5 mph - N/A   Clear
2:15 AM 26.6 °F 15.2 °F 12.2 °F 55% 30.46 in 10.0 mi SSW 13.8 mph - N/A   Clear
2:35 AM 26.6 °F 14.7 °F 14.0 °F 59% 30.45 in 10.0 mi SSW 15.0 mph 19.6 mph N/A   Clear
2:55 AM 26.6 °F 15.2 °F 14.0 °F 59% 30.44 in 10.0 mi SSW 13.8 mph 18.4 mph N/A   Clear
3:15 AM 26.6 °F 14.7 °F 14.0 °F 59% 30.43 in 10.0 mi SSW 15.0 mph 19.6 mph N/A   Clear
3:35 AM 26.6 °F 14.7 °F 14.0 °F 59% 30.41 in 10.0 mi SSW 15.0 mph 19.6 mph N/A   Clear
3:55 AM 26.6 °F 14.7 °F 14.0 °F 59% 30.41 in 10.0 mi SSW 15.0 mph - N/A   Clear
4:15 AM 26.6 °F 15.7 °F 15.8 °F 64% 30.40 in 10.0 mi SSW 12.7 mph - N/A   Clear
4:35 AM 26.6 °F 15.2 °F 15.8 °F 64% 30.38 in 10.0 mi SSW 13.8 mph - N/A   Clear
4:55 AM 26.6 °F 14.7 °F 15.8 °F 64% 30.37 in 10.0 mi SSW 15.0 mph 20.7 mph N/A   Clear
5:15 AM 26.6 °F 14.7 °F 15.8 °F 64% 30.37 in 10.0 mi SSW 15.0 mph - N/A   Clear
5:35 AM 26.6 °F 15.7 °F 15.8 °F 64% 30.36 in 10.0 mi SSW 12.7 mph - N/A   Clear
5:55 AM 26.6 °F 15.7 °F 15.8 °F 64% 30.36 in 10.0 mi SSW 12.7 mph - N/A   Clear
6:15 AM 24.8 °F 13.4 °F 15.8 °F 69% 30.35 in 10.0 mi SSW 12.7 mph - N/A   Clear
6:35 AM 24.8 °F 12.9 °F 17.6 °F 74% 30.34 in 10.0 mi SSW 13.8 mph - N/A   Clear
6:55 AM 26.6 °F 14.7 °F 17.6 °F 69% 30.34 in 10.0 mi SSW 15.0 mph - N/A   Clear
7:15 AM 26.6 °F 15.2 °F 17.6 °F 69% 30.34 in 10.0 mi SSW 13.8 mph - N/A   Clear
7:35 AM 26.6 °F 16.2 °F 17.6 °F 69% 30.33 in 10.0 mi SSW 11.5 mph - N/A   Clear
7:55 AM 26.6 °F 15.7 °F 17.6 °F 69% 30.33 in 10.0 mi SSW 12.7 mph - N/A   Clear
8:15 AM 26.6 °F 16.2 °F 17.6 °F 69% 30.33 in 10.0 mi SSW 11.5 mph - N/A   Clear
8:35 AM 28.4 °F 18.0 °F 17.6 °F 64% 30.33 in 10.0 mi SSW 12.7 mph - N/A   Clear
8:55 AM 30.2 °F 18.9 °F 17.6 °F 60% 30.32 in 10.0 mi SSW 16.1 mph - N/A   Clear
9:15 AM 32.0 °F 20.8 °F 19.4 °F 60% 30.31 in 10.0 mi SSW 17.3 mph - N/A   Clear
9:35 AM 33.8 °F 22.8 °F 19.4 °F 56% 30.29 in 10.0 mi SSW 18.4 mph 23.0 mph N/A   Clear
9:55 AM 35.6 °F 24.5 °F 21.2 °F 56% 30.28 in 10.0 mi SSW 20.7 mph 25.3 mph N/A   Clear
10:15 AM 37.4 °F 27.5 °F 23.0 °F 56% 30.27 in 10.0 mi SSW 18.4 mph 24.2 mph N/A   Clear
10:35 AM 41.0 °F 32.2 °F 23.0 °F 49% 30.26 in 10.0 mi SSW 18.4 mph 26.5 mph N/A   Clear
10:55 AM 41.0 °F 31.6 °F 24.8 °F 53% 30.24 in 10.0 mi SSW 20.7 mph - N/A   Clear
11:15 AM 44.6 °F 36.6 °F 24.8 °F 46% 30.23 in 10.0 mi SSW 19.6 mph 26.5 mph N/A   Clear
11:35 AM 46.4 °F 38.7 °F 26.6 °F 46% 30.22 in 10.0 mi SSW 20.7 mph 26.5 mph N/A   Clear
11:55 AM 48.2 °F - 26.6 °F 43% 30.20 in 10.0 mi South 20.7 mph 25.3 mph N/A   Clear
12:15 PM 48.2 °F - 28.4 °F 46% 30.19 in 10.0 mi SSW 20.7 mph 26.5 mph N/A   Clear
12:35 PM 50.0 °F - 28.4 °F 43% 30.17 in 10.0 mi SSW 18.4 mph 27.6 mph N/A   Clear
12:55 PM 51.8 °F - 28.4 °F 41% 30.15 in 10.0 mi SSW 20.7 mph 26.5 mph N/A   Clear
1:15 PM 53.6 °F - 32.0 °F 44% 30.14 in 10.0 mi SSW 19.6 mph 24.2 mph N/A   Clear
1:35 PM 55.4 °F - 32.0 °F 41% 30.13 in 10.0 mi SSW 20.7 mph 27.6 mph N/A   Clear
1:55 PM 55.4 °F - 32.0 °F 41% 30.11 in 10.0 mi SSW 18.4 mph 27.6 mph N/A   Clear
2:15 PM 55.4 °F - 32.0 °F 41% 30.11 in 10.0 mi SSW 19.6 mph 24.2 mph N/A   Clear
2:35 PM 55.4 °F - 32.0 °F 41% 30.10 in 10.0 mi South 21.9 mph 27.6 mph N/A   Clear
2:55 PM 55.4 °F - 32.0 °F 41% 30.09 in 10.0 mi SSW 17.3 mph 25.3 mph N/A   Clear
3:15 PM 55.4 °F - 32.0 °F 41% 30.08 in 10.0 mi SSW 21.9 mph 25.3 mph N/A   Clear
3:35 PM 55.4 °F - 32.0 °F 41% 30.07 in 10.0 mi South 18.4 mph 23.0 mph N/A   Clear
3:55 PM 55.4 °F - 32.0 °F 41% 30.06 in 10.0 mi South 15.0 mph 24.2 mph N/A   Clear
4:15 PM 55.4 °F - 33.8 °F 44% 30.06 in 10.0 mi South 16.1 mph - N/A   Clear
4:35 PM 53.6 °F - 33.8 °F 47% 30.05 in 10.0 mi South 15.0 mph 20.7 mph N/A   Clear
4:55 PM 53.6 °F - 35.6 °F 51% 30.04 in 10.0 mi South 13.8 mph - N/A   Clear
5:15 PM 50.0 °F - 35.6 °F 58% 30.03 in 10.0 mi South 13.8 mph - N/A   Clear
5:35 PM 50.0 °F - 35.6 °F 58% 30.03 in 10.0 mi South 16.1 mph - N/A   Clear
5:55 PM 50.0 °F - 35.6 °F 58% 30.03 in 10.0 mi South 15.0 mph - N/A   Clear
6:15 PM 48.2 °F - 35.6 °F 62% 30.03 in 10.0 mi South 15.0 mph - N/A   Clear
6:35 PM 46.4 °F 40.4 °F 33.8 °F 62% 30.03 in 10.0 mi South 13.8 mph - N/A   Clear
6:55 PM 44.6 °F 38.1 °F 33.8 °F 66% 30.02 in 10.0 mi South 13.8 mph - N/A   Clear
7:15 PM 44.6 °F 38.1 °F 32.0 °F 61% 30.03 in 10.0 mi South 13.8 mph - N/A   Clear
7:35 PM 44.6 °F 38.4 °F 32.0 °F 61% 30.03 in 10.0 mi SSW 12.7 mph - N/A   Clear
7:55 PM 42.8 °F 36.2 °F 32.0 °F 66% 30.03 in 10.0 mi South 12.7 mph - N/A   Clear
8:15 PM 41.0 °F 33.9 °F 32.0 °F 70% 30.02 in 10.0 mi South 12.7 mph - N/A   Clear
8:35 PM 41.0 °F 34.7 °F 32.0 °F 70% 30.03 in 10.0 mi SSW 10.4 mph - N/A   Clear
8:55 PM 41.0 °F 33.5 °F 32.0 °F 70% 30.01 in 10.0 mi South 13.8 mph - N/A   Clear
9:15 PM 41.0 °F 33.1 °F 32.0 °F 70% 30.01 in 10.0 mi South 15.0 mph - N/A   Clear
9:35 PM 41.0 °F 33.1 °F 32.0 °F 70% 30.00 in 10.0 mi South 15.0 mph 20.7 mph N/A   Clear
9:55 PM 41.0 °F 33.1 °F 30.2 °F 65% 30.00 in 10.0 mi South 15.0 mph - N/A   Clear
10:15 PM 39.2 °F 30.8 °F 30.2 °F 70% 29.99 in 10.0 mi South 15.0 mph - N/A   Clear
10:35 PM 39.2 °F 31.6 °F 30.2 °F 70% 29.99 in 10.0 mi SSW 12.7 mph - N/A   Clear
10:55 PM 39.2 °F 31.2 °F 28.4 °F 65% 29.98 in 10.0 mi SSW 13.8 mph - N/A   Clear
11:15 PM 37.4 °F 29.3 °F 28.4 °F 70% 29.97 in 10.0 mi SSW 12.7 mph - N/A   Clear
11:35 PM 37.4 °F 29.3 °F 28.4 °F 70% 29.96 in 10.0 mi SSW 12.7 mph - N/A   Clear
11:55 PM 37.4 °F 29.3 °F 28.4 °F 70% 29.96 in 10.0 mi SSW 12.7 mph - N/A   Clear